Weather in Dede-Sutoy

Russia / Republic of Buryatia     51°15′53″N   106°51′12″E
temp.,
°C
wind,
m/s
gust,
m/s
humid.,
%
clouds,
%
prec.,
mm/h
press.,
hPa
HPBL,
m
8 august, mon
mon823:00+12n226794 0.0 101312
02:00+9ne11795 0.0 101410
05:00+8ne118411 0.0 101310
08:00+13ssw01640 0.0 1013252
11:00+19w11460 0.0 1012890
14:00+23wsw14340 0.0 10091726
17:00+24nw56250 0.0 10091976
20:00+17n224345 0.0 101011
9 august, tue
tue923:00+14nnw1147100 0.0 101111
02:00+13nne2253100 0.0 101111
05:00+11nne116494 0.0 101110
08:00+15ene1149100 0.0 1011115
11:00+21sw2236100 0.0 1010762
14:00+24wsw222925 0.0 10081351
17:00+25wsw3231100 0.0 10071591
20:00+18w116322 0.0 100711
10 august, wed
wed1023:00+16nne226346 0.0 100811
02:00+14nne335863 0.0 100831
05:00+12nne22645 0.0 100815
08:00+16nne22535 0.0 1008199
11:00+23ene113887 0.0 1007878
14:00+26w113196 0.0 10051981
17:00+25wnw2233100 0.0 10041829
20:00+17wsw3673100 0.3 1007209
11 august, thu
thu1123:00+16wnw227743 0.0 100819
02:00+13nw11782 0.0 100911
05:00+12wnw11790 0.0 100910
08:00+16sw11630 0.0 1010202
11:00+22wsw224787 0.0 1008979
14:00+24wsw223765 0.0 10061599
17:00+24wsw2237100 0.0 10051352
20:00+20wnw1155100 0.0 100411
12 august, fri
fri1223:00+17w2262100 0.0 100514
02:00+16w2274100 0.8 100515
05:00+15wsw227950 0.0 100512
08:00+17nw2372100 0.1 1006263
11:00+16nw2681100 0.3 1007449
14:00+19nw2465100 2.2 1007704
17:00+21nw565299 1.3 1006742
20:00+17nw336854 1.3 100731